Harbor Springs, MI

8:38 PM EST on January 20, 2017 (GMT -0500)
Harbor Springs

Weather History for KMGN - March, 2013

Change the Weather History Date:

Thursday, March 7, 2013

  Actual Average (KPLN) Record (KPLN)
Temperature  
Mean Temperature 26 °F -  
Max Temperature 28 °F 32 °F 60 °F (1983)
Min Temperature 23 °F 11 °F -20 °F (1967)
Degree Days  
Heating Degree Days 40    
Moisture  
Dew Point 19 °F    
Average Humidity 74    
Maximum Humidity 83    
Minimum Humidity 64    
Precipitation  
Precipitation 0.00 in - - ()
Sea Level Pressure  
Sea Level Pressure 30.35 in    
Wind  
Wind Speed 6 mph (WNW)    
Max Wind Speed 10 mph    
Max Gust Speed -    
Visibility 10 miles    
Events Snow    
Averages and records for this station are not official NWS values.
T = Trace of Precipitation, MM = Missing Value Source: NWS Daily Summary

Daily Weather History Graph

Daily Weather History Graph

Search for Another Location

Airport or City:

Trip Planner

Search our weather history database for the weather conditions in past years. The results will help you decide how hot, cold, wet, or windy it might be!

Date:

Astronomy

Mar. 07, 2013 Rise Set
Actual Time 7:06 AM EST 6:35 PM EST
Civil Twilight 6:37 AM EST 7:04 PM EST
Nautical Twilight 6:02 AM EST 7:39 PM EST
Astronomical Twilight 5:28 AM EST 8:13 PM EST
Moon 4:16 AM EST (3/7) 2:12 PM EST (3/7)
Length of Visible Light 12h 27m
Length of Day
11h 28m
Waning Crescent, 20% of the Moon is Illuminated
Mar 7
Waning Crescent
Mar 11
New
Mar 19
First Quarter
Mar 27
Full
Apr 3
Last Quarter

Hourly Weather History & Observations

Time (EST) Temp. Windchill Dew Point Humidity Pressure Visibility Wind Dir Wind Speed Gust Speed Precip Events Conditions
12:14 AM 28.0 °F 18.6 °F 22.8 °F 81% 30.25 in 10.0 mi NW 10.4 mph - N/A   Overcast
12:34 AM 28.0 °F 19.3 °F 23.0 °F 81% 30.25 in 10.0 mi NW 9.2 mph - N/A Snow Light Snow
12:55 AM 26.2 °F 20.7 °F 21.2 °F 81% 30.25 in 10.0 mi NNW 4.6 mph - N/A   Overcast
1:14 AM 25.5 °F 15.5 °F 20.5 °F 81% 30.26 in 10.0 mi WNW 10.4 mph - N/A Snow Light Snow
1:34 AM 25.5 °F 16.2 °F 20.3 °F 81% 30.26 in 10.0 mi WNW 9.2 mph - N/A Snow Light Snow
1:55 AM 25.5 °F 19.9 °F 19.9 °F 79% 30.27 in 10.0 mi NW 4.6 mph - N/A   Overcast
2:14 AM 25.5 °F 19.9 °F 20.3 °F 81% 30.27 in 10.0 mi WNW 4.6 mph - N/A   Overcast
2:34 AM 25.5 °F 16.2 °F 20.5 °F 81% 30.27 in 10.0 mi WNW 9.2 mph - N/A   Overcast
2:55 AM 25.5 °F 17.8 °F 20.5 °F 81% 30.28 in 10.0 mi NNW 6.9 mph - N/A   Overcast
3:14 AM 24.8 °F 17.9 °F 19.8 °F 81% 30.28 in 10.0 mi NW 5.8 mph - N/A   Overcast
3:34 AM 24.6 °F 18.8 °F 19.6 °F 81% 30.28 in 10.0 mi NNW 4.6 mph - N/A   Overcast
3:55 AM 24.6 °F 17.7 °F 19.4 °F 81% 30.28 in 10.0 mi NW 5.8 mph - N/A   Overcast
4:14 AM 24.8 °F 16.1 °F 19.2 °F 79% 30.28 in 10.0 mi NNW 8.1 mph - N/A   Overcast
4:34 AM 24.6 °F 18.8 °F 19.0 °F 79% 30.28 in 10.0 mi NW 4.6 mph - N/A   Overcast
4:55 AM 24.6 °F - 19.0 °F 79% 30.29 in 10.0 mi Calm Calm - N/A   Overcast
5:14 AM 24.1 °F 19.7 °F 18.3 °F 79% 30.29 in 10.0 mi WNW 3.5 mph - N/A   Mostly Cloudy
5:34 AM 23.0 °F - 17.6 °F 80% 30.29 in 10.0 mi Calm Calm - N/A   Scattered Clouds
5:55 AM 23.0 °F 18.4 °F 18.0 °F 81% 30.29 in 10.0 mi West 3.5 mph - N/A   Overcast
6:14 AM 23.4 °F 18.9 °F 18.0 °F 80% 30.30 in 10.0 mi NW 3.5 mph - N/A   Overcast
6:34 AM 23.5 °F 16.4 °F 18.0 °F 79% 30.30 in 10.0 mi NW 5.8 mph - N/A   Overcast
6:55 AM 23.9 °F 16.8 °F 18.3 °F 79% 30.31 in 10.0 mi NW 5.8 mph - N/A   Overcast
7:14 AM 24.4 °F 20.1 °F 18.5 °F 78% 30.31 in 10.0 mi WNW 3.5 mph - N/A   Overcast
7:34 AM 24.3 °F 18.4 °F 18.5 °F 79% 30.32 in 10.0 mi NNW 4.6 mph - N/A   Overcast
7:55 AM 24.6 °F 20.3 °F 18.5 °F 78% 30.33 in 10.0 mi NW 3.5 mph - N/A   Overcast
8:14 AM 24.6 °F 18.8 °F 18.1 °F 76% 30.34 in 10.0 mi NNW 4.6 mph - N/A   Overcast
8:34 AM 24.8 °F 16.9 °F 17.2 °F 73% 30.34 in 10.0 mi WNW 6.9 mph - N/A   Overcast
8:55 AM 25.0 °F 17.1 °F 16.9 °F 71% 30.35 in 10.0 mi NNW 6.9 mph - N/A   Overcast
9:14 AM 25.5 °F 17.8 °F 16.9 °F 70% 30.35 in 10.0 mi WNW 6.9 mph - N/A   Overcast
9:34 AM 25.5 °F 18.7 °F 16.7 °F 69% 30.35 in 10.0 mi WNW 5.8 mph - N/A Snow Light Snow
9:55 AM 25.5 °F 16.2 °F 16.5 °F 69% 30.35 in 10.0 mi WNW 9.2 mph - N/A   Overcast
10:14 AM 25.5 °F 16.9 °F 16.7 °F 69% 30.35 in 10.0 mi West 8.1 mph - N/A   Overcast
10:34 AM 25.9 °F 19.2 °F 16.9 °F 69% 30.35 in 10.0 mi West 5.8 mph - N/A   Overcast
10:55 AM 28.0 °F 21.7 °F 18.5 °F 67% 30.36 in 10.0 mi West 5.8 mph - N/A   Overcast
11:14 AM 28.0 °F 19.3 °F 19.0 °F 69% 30.36 in 10.0 mi West 9.2 mph - N/A   Overcast
11:34 AM 28.0 °F 20.0 °F 19.4 °F 70% 30.36 in 10.0 mi WNW 8.1 mph - N/A   Overcast
11:54 AM 28.0 °F 20.8 °F 19.9 °F 72% 30.36 in 10.0 mi NW 6.9 mph - N/A   Overcast
12:14 PM 28.0 °F 20.8 °F 19.4 °F 70% 30.36 in 10.0 mi WNW 6.9 mph - N/A   Overcast
12:34 PM 28.0 °F - 19.4 °F 70% 30.36 in 10.0 mi Calm Calm - N/A   Overcast
12:51 PM 28.0 °F 21.7 °F 19.0 °F 69% 30.36 in 10.0 mi NW 5.8 mph - N/A   Overcast
1:18 PM 28.4 °F 24.6 °F 17.6 °F 64% 30.36 in 10.0 mi WNW 3.5 mph - N/A   Overcast
1:44 PM 28.4 °F 23.3 °F 17.6 °F 64% 30.35 in 10.0 mi WNW 4.6 mph - N/A   Overcast
1:57 PM 28.4 °F 24.6 °F 17.6 °F 64% 30.35 in 10.0 mi NNW 3.5 mph - N/A   Overcast
2:19 PM 28.4 °F 24.6 °F 19.4 °F 69% 30.36 in 10.0 mi NW 3.5 mph - N/A   Overcast
2:39 PM 28.4 °F 21.2 °F 19.4 °F 69% 30.36 in 10.0 mi West 6.9 mph - N/A   Overcast
2:58 PM 28.4 °F 23.3 °F 17.6 °F 64% 30.36 in 10.0 mi WNW 4.6 mph - N/A   Overcast
3:18 PM 28.4 °F 24.6 °F 19.4 °F 69% 30.37 in 10.0 mi NNW 3.5 mph - N/A   Overcast
3:38 PM 28.4 °F 21.2 °F 19.4 °F 69% 30.37 in 10.0 mi WNW 6.9 mph - N/A   Overcast
3:58 PM 28.4 °F 23.3 °F 19.4 °F 69% 30.38 in 10.0 mi WNW 4.6 mph - N/A   Overcast
4:18 PM 28.4 °F 22.2 °F 19.4 °F 69% 30.38 in 10.0 mi WNW 5.8 mph - N/A   Overcast
4:22 PM 28.2 °F 22.0 °F 19.4 °F 70% 30.38 in 10.0 mi West 5.8 mph - N/A   Overcast
4:35 PM 28.2 °F 21.0 °F 19.4 °F 70% 30.38 in 10.0 mi WNW 6.9 mph - N/A   Overcast
4:54 PM 28.2 °F 20.2 °F 19.4 °F 70% 30.38 in 10.0 mi West 8.1 mph - N/A   Overcast
5:14 PM 28.0 °F 22.8 °F 20.3 °F 73% 30.39 in 10.0 mi WSW 4.6 mph - N/A   Overcast
5:34 PM 28.0 °F 21.7 °F 20.5 °F 73% 30.39 in 10.0 mi WSW 5.8 mph - N/A   Overcast
5:54 PM 28.0 °F - 20.1 °F 72% 30.39 in 10.0 mi Calm Calm - N/A   Overcast
6:14 PM 28.0 °F 24.2 °F 19.6 °F 71% 30.39 in 10.0 mi NNW 3.5 mph - N/A   Overcast
6:34 PM 28.0 °F 24.2 °F 19.4 °F 70% 30.40 in 10.0 mi NNW 3.5 mph - N/A   Overcast
6:54 PM 28.2 °F - 19.4 °F 70% 30.40 in 10.0 mi Calm Calm - N/A   Overcast
8:34 PM 28.0 °F - 20.1 °F 72% 30.41 in 10.0 mi Calm Calm - N/A   Overcast
8:54 PM 28.0 °F - 20.3 °F 73% 30.42 in 10.0 mi Calm Calm - N/A   Overcast
9:15 PM 28.0 °F 24.2 °F 20.3 °F 73% 30.42 in 10.0 mi WNW 3.5 mph - N/A   Overcast
9:34 PM 28.0 °F - 20.3 °F 73% 30.42 in 10.0 mi Calm Calm - N/A   Overcast
9:54 PM 28.0 °F - 20.8 °F 74% 30.42 in 10.0 mi Calm Calm - N/A   Overcast
10:15 PM 28.0 °F - 20.7 °F 74% 30.42 in 10.0 mi Calm Calm - N/A   Overcast
10:34 PM 28.0 °F - 20.8 °F 74% 30.42 in 10.0 mi Calm Calm - N/A   Overcast
10:54 PM 28.0 °F - 22.1 °F 78% 30.42 in 10.0 mi Calm Calm - N/A   Overcast
11:15 PM 28.0 °F - 22.3 °F 79% 30.42 in 10.0 mi Calm Calm - N/A   Overcast
11:34 PM 27.0 °F - 21.7 °F 81% 30.42 in 10.0 mi Calm Calm - N/A   Overcast
11:54 PM 25.9 °F - 21.4 °F 83% 30.42 in 10.0 mi Calm Calm - N/A   Mostly Cloudy